RYR7LW LIMC-LICJ

Flight info

Callsign RYR7LW
Flight time 1h 23m
Altitude 37000
Route SRN DCT GOVGO DCT POKAV DCT GIANO
Aircraft B38M/M-SDE1FGHILORVWXY/HB1

Departure

Time 2026-05-07 19:45
Airport Milan Malpensa International Airport (LIMC)

Arrival

Time 2026-05-07 21:08
Airport Falcone–Borsellino Airport (LICJ)
Time Latitude Longitude Altitude Speed Heading
2026-05-07 19:04 45.62553 8.71735 743 ft 0 kts 230°
2026-05-07 19:29 45.62563 8.71751 716 ft 3 kts 225°
2026-05-07 19:30 45.62580 8.71775 743 ft 3 kts 229°
2026-05-07 19:30 45.62590 8.71798 739 ft 1 kts 251°
2026-05-07 19:30 45.62599 8.71824 741 ft 3 kts 220°
2026-05-07 19:30 45.62619 8.71837 742 ft 3 kts 189°
2026-05-07 19:31 45.62610 8.71839 743 ft 3 kts 169°
2026-05-07 19:31 45.62588 8.71847 741 ft 2 kts 169°
2026-05-07 19:31 45.62587 8.71848 741 ft 0 kts 169°
2026-05-07 19:36 45.62581 8.71849 742 ft 3 kts 168°
2026-05-07 19:37 45.62522 8.71865 743 ft 13 kts 170°
2026-05-07 19:37 45.62423 8.71893 743 ft 17 kts 169°
2026-05-07 19:37 45.62301 8.71927 741 ft 19 kts 168°
2026-05-07 19:37 45.62174 8.71962 741 ft 19 kts 169°
2026-05-07 19:38 45.62041 8.71999 744 ft 20 kts 168°
2026-05-07 19:38 45.61899 8.72038 744 ft 22 kts 169°
2026-05-07 19:38 45.61748 8.72079 741 ft 23 kts 168°
2026-05-07 19:38 45.61588 8.72124 742 ft 24 kts 169°
2026-05-07 19:39 45.61420 8.72170 744 ft 25 kts 169°
2026-05-07 19:39 45.61244 8.72218 742 ft 26 kts 169°
2026-05-07 19:39 45.61062 8.72268 743 ft 27 kts 169°
2026-05-07 19:39 45.60872 8.72321 743 ft 28 kts 169°
2026-05-07 19:40 45.60711 8.72367 744 ft 15 kts 168°
2026-05-07 19:40 45.60643 8.72456 744 ft 14 kts 105°
2026-05-07 19:40 45.60629 8.72607 741 ft 17 kts 96°
2026-05-07 19:40 45.60616 8.72787 744 ft 20 kts 95°
2026-05-07 19:41 45.60601 8.72991 744 ft 21 kts 96°
2026-05-07 19:41 45.60597 8.73203 743 ft 20 kts 71°
2026-05-07 19:41 45.60703 8.73308 743 ft 19 kts 23°
2026-05-07 19:41 45.60832 8.73384 743 ft 21 kts 21°
2026-05-07 19:42 45.60976 8.73386 743 ft 22 kts 348°
2026-05-07 19:42 45.61127 8.73343 744 ft 22 kts 349°
2026-05-07 19:42 45.61281 8.73301 742 ft 23 kts 348°
2026-05-07 19:42 45.61443 8.73256 743 ft 24 kts 349°
2026-05-07 19:43 45.61583 8.73219 742 ft 12 kts 358°
2026-05-07 19:43 45.61620 8.73302 742 ft 12 kts 79°
2026-05-07 19:43 45.61632 8.73423 744 ft 13 kts 97°
2026-05-07 19:43 45.61588 8.73543 744 ft 15 kts 106°
2026-05-07 19:44 45.61595 8.73691 741 ft 12 kts 78°
2026-05-07 19:44 45.61612 8.73740 740 ft 2 kts 18°
2026-05-07 19:44 45.61629 8.73734 742 ft 8 kts 346°
2026-05-07 19:44 45.61851 8.73673 740 ft 71 kts 349°
2026-05-07 19:45 45.62573 8.73474 743 ft 141 kts 349°
2026-05-07 19:45 45.63704 8.73161 985 ft 179 kts 349°
2026-05-07 19:45 45.64953 8.72855 1752 ft 188 kts 352°
2026-05-07 19:45 45.66248 8.72738 2654 ft 190 kts 359°
2026-05-07 19:46 45.67687 8.72703 2963 ft 221 kts 359°
2026-05-07 19:46 45.69304 8.72653 3491 ft 238 kts 358°
2026-05-07 19:46 45.70941 8.72604 4468 ft 235 kts
2026-05-07 19:46 45.72568 8.72999 5275 ft 240 kts 22°
2026-05-07 19:47 45.73942 8.74313 6109 ft 242 kts 48°
2026-05-07 19:47 45.74787 8.76388 6892 ft 244 kts 74°
2026-05-07 19:47 45.74946 8.78801 7656 ft 246 kts 98°
2026-05-07 19:47 45.74423 8.81187 8255 ft 258 kts 111°
2026-05-07 19:48 45.73792 8.83635 8999 ft 262 kts 111°
2026-05-07 19:48 45.72891 8.85875 9812 ft 266 kts 127°
2026-05-07 19:48 45.71785 8.88020 10513 ft 270 kts 126°
2026-05-07 19:48 45.70669 8.90211 11231 ft 274 kts 126°
2026-05-07 19:49 45.69537 8.92438 11955 ft 279 kts 127°
2026-05-07 19:49 45.68387 8.94700 12666 ft 283 kts 127°
2026-05-07 19:49 45.67220 8.96997 13386 ft 288 kts 127°
2026-05-07 19:49 45.66034 8.99330 14068 ft 292 kts 128°
2026-05-07 19:50 45.64730 9.01602 14547 ft 302 kts 142°
2026-05-07 19:50 45.62871 9.03095 14814 ft 315 kts 162°
2026-05-07 19:50 45.60762 9.04259 15049 ft 335 kts 161°
2026-05-07 19:50 45.58531 9.05516 15218 ft 355 kts 161°
2026-05-07 19:51 45.56169 9.06835 15407 ft 373 kts 161°
2026-05-07 19:51 45.53714 9.08200 15744 ft 384 kts 161°
2026-05-07 19:51 45.51214 9.09585 16385 ft 386 kts 161°
2026-05-07 19:51 45.48694 9.10980 16956 ft 390 kts 161°
2026-05-07 19:52 45.46156 9.12383 17543 ft 393 kts 161°
2026-05-07 19:52 45.43592 9.13799 18114 ft 397 kts 161°
2026-05-07 19:52 45.41007 9.15225 18620 ft 400 kts 161°
2026-05-07 19:52 45.38405 9.16659 19131 ft 402 kts 161°
2026-05-07 19:53 45.35786 9.18101 19634 ft 405 kts 161°
2026-05-07 19:53 45.33151 9.19550 20111 ft 408 kts 161°
2026-05-07 19:53 45.30535 9.20988 20587 ft 410 kts 161°
2026-05-07 19:53 45.27859 9.22457 21062 ft 413 kts 161°
2026-05-07 19:54 45.25161 9.23937 21534 ft 416 kts 162°
2026-05-07 19:54 45.22450 9.25422 22042 ft 418 kts 162°
2026-05-07 19:54 45.19716 9.26918 22513 ft 421 kts 162°
2026-05-07 19:54 45.16978 9.28415 22979 ft 424 kts 162°
2026-05-07 19:55 45.14212 9.29926 23441 ft 427 kts 162°
2026-05-07 19:55 45.11431 9.31443 23852 ft 430 kts 162°
2026-05-07 19:55 45.08633 9.32968 24248 ft 432 kts 162°
2026-05-07 19:55 45.05819 9.34500 24655 ft 435 kts 163°
2026-05-07 19:56 45.02989 9.36040 25049 ft 437 kts 163°
2026-05-07 19:56 45.00137 9.37588 25435 ft 440 kts 163°
2026-05-07 19:56 44.97268 9.39145 25825 ft 442 kts 163°
2026-05-07 19:56 44.94389 9.40706 26208 ft 445 kts 163°
2026-05-07 19:57 44.91493 9.42274 26597 ft 447 kts 164°
2026-05-07 19:57 44.88581 9.43850 26957 ft 450 kts 164°
2026-05-07 19:57 44.85646 9.45436 27313 ft 452 kts 164°
2026-05-07 19:57 44.82695 9.47029 27683 ft 455 kts 164°
2026-05-07 19:58 44.79733 9.48625 28032 ft 457 kts 164°
2026-05-07 19:58 44.76748 9.50233 28325 ft 460 kts 165°
2026-05-07 19:58 44.73751 9.51845 28664 ft 463 kts 166°
2026-05-07 19:58 44.70728 9.53469 28894 ft 468 kts 166°
2026-05-07 19:59 44.67681 9.55105 29244 ft 469 kts 166°
2026-05-07 19:59 44.64626 9.56744 29543 ft 471 kts 166°
2026-05-07 19:59 44.61557 9.58387 29885 ft 473 kts 166°
2026-05-07 19:59 44.58473 9.60037 30160 ft 475 kts 167°
2026-05-07 20:00 44.55374 9.61693 30473 ft 476 kts 167°
2026-05-07 20:00 44.52321 9.63323 30906 ft 475 kts 167°
2026-05-07 20:00 44.49238 9.64967 31293 ft 474 kts 168°
2026-05-07 20:00 44.46165 9.66603 31703 ft 472 kts 168°
2026-05-07 20:01 44.43101 9.68233 32107 ft 470 kts 168°
2026-05-07 20:01 44.40046 9.69857 32535 ft 469 kts 168°
2026-05-07 20:01 44.36999 9.71473 32976 ft 467 kts 168°
2026-05-07 20:01 44.33970 9.73080 33377 ft 464 kts 168°
2026-05-07 20:02 44.30954 9.74678 33760 ft 464 kts 168°
2026-05-07 20:02 44.27941 9.76271 34120 ft 463 kts 168°
2026-05-07 20:02 44.24935 9.77860 34447 ft 462 kts 168°
2026-05-07 20:02 44.21930 9.79446 34768 ft 461 kts 168°
2026-05-07 20:03 44.18934 9.81025 35052 ft 460 kts 167°
2026-05-07 20:03 44.15947 9.82599 35412 ft 458 kts 167°
2026-05-07 20:03 44.12969 9.84165 35695 ft 457 kts 167°
2026-05-07 20:03 44.09995 9.85728 35949 ft 456 kts 167°
2026-05-07 20:04 44.07027 9.87286 36214 ft 456 kts 167°
2026-05-07 20:04 44.04064 9.88840 36482 ft 455 kts 167°
2026-05-07 20:04 44.01100 9.90392 36751 ft 454 kts 167°
2026-05-07 20:04 43.98145 9.91939 36942 ft 454 kts 167°
2026-05-07 20:05 43.92260 9.95013 36991 ft 450 kts 167°
2026-05-07 20:05 43.86411 9.98062 37006 ft 449 kts 167°
2026-05-07 20:06 43.80555 10.01109 37005 ft 449 kts 167°
2026-05-07 20:06 43.74745 10.04126 37004 ft 448 kts 167°
2026-05-07 20:07 43.68907 10.07150 37007 ft 448 kts 167°
2026-05-07 20:07 43.63071 10.10167 37007 ft 448 kts 167°
2026-05-07 20:08 43.57233 10.13179 36978 ft 448 kts 167°
2026-05-07 20:08 43.51410 10.16178 37000 ft 447 kts 167°
2026-05-07 20:09 43.45585 10.19170 37005 ft 447 kts 167°
2026-05-07 20:10 43.36835 10.23655 36982 ft 448 kts 168°
2026-05-07 20:10 43.31001 10.26639 37000 ft 447 kts 168°
2026-05-07 20:11 43.25164 10.29618 37000 ft 447 kts 168°
2026-05-07 20:11 43.19364 10.32572 37000 ft 447 kts 168°
2026-05-07 20:12 43.13467 10.35375 36989 ft 445 kts 169°
2026-05-07 20:12 43.07651 10.38121 36996 ft 445 kts 169°
2026-05-07 20:13 43.01799 10.40885 37004 ft 445 kts 169°
2026-05-07 20:13 42.95946 10.43643 37000 ft 445 kts 169°
2026-05-07 20:14 42.90098 10.46393 36993 ft 445 kts 169°
2026-05-07 20:14 42.84245 10.49141 36996 ft 445 kts 169°
2026-05-07 20:15 42.78393 10.51882 36994 ft 445 kts 169°
2026-05-07 20:15 42.72540 10.54618 36971 ft 444 kts 168°
2026-05-07 20:16 42.66687 10.57349 36987 ft 445 kts 168°
2026-05-07 20:16 42.60818 10.60082 36993 ft 446 kts 168°
2026-05-07 20:17 42.54940 10.62813 36992 ft 446 kts 168°
2026-05-07 20:17 42.49063 10.65539 36985 ft 446 kts 168°
2026-05-07 20:18 42.43188 10.68258 36992 ft 446 kts 168°
2026-05-07 20:18 42.37350 10.70955 36993 ft 446 kts 168°
2026-05-07 20:19 42.31472 10.73665 36989 ft 446 kts 168°
2026-05-07 20:19 42.25593 10.76370 36988 ft 446 kts 168°
2026-05-07 20:20 42.19719 10.79068 36985 ft 446 kts 168°
2026-05-07 20:20 42.13843 10.81760 36988 ft 446 kts 168°
2026-05-07 20:21 42.07962 10.84451 36962 ft 446 kts 168°
2026-05-07 20:21 42.02077 10.87138 36975 ft 446 kts 168°
2026-05-07 20:22 41.96191 10.89819 36974 ft 446 kts 168°
2026-05-07 20:22 41.90306 10.92495 36974 ft 446 kts 168°
2026-05-07 20:23 41.85412 10.94717 36959 ft 447 kts 168°
2026-05-07 20:23 41.79519 10.97387 36967 ft 447 kts 168°
2026-05-07 20:24 41.73622 11.00054 36976 ft 447 kts 169°
2026-05-07 20:24 41.67726 11.02715 36972 ft 447 kts 169°
2026-05-07 20:25 41.61823 11.05374 36978 ft 448 kts 169°
2026-05-07 20:25 41.55906 11.08035 36962 ft 448 kts 169°
2026-05-07 20:26 41.50029 11.10672 36957 ft 448 kts 169°
2026-05-07 20:26 41.44117 11.13320 36953 ft 448 kts 169°
2026-05-07 20:27 41.38191 11.15969 36963 ft 450 kts 169°
2026-05-07 20:27 41.32265 11.18613 36959 ft 449 kts 169°
2026-05-07 20:28 41.26334 11.21254 36959 ft 449 kts 169°
2026-05-07 20:28 41.20401 11.23891 36938 ft 450 kts 169°
2026-05-07 20:29 41.14463 11.26526 36957 ft 450 kts 169°
2026-05-07 20:29 41.08518 11.29157 36958 ft 450 kts 169°
2026-05-07 20:30 41.02571 11.31786 36942 ft 451 kts 169°
2026-05-07 20:30 40.96610 11.34417 36946 ft 451 kts 169°
2026-05-07 20:31 40.90663 11.37036 36954 ft 451 kts 169°
2026-05-07 20:31 40.84718 11.39659 36957 ft 452 kts 167°
2026-05-07 20:32 40.78911 11.42895 36959 ft 456 kts 165°
2026-05-07 20:32 40.73078 11.46104 36960 ft 453 kts 166°
2026-05-07 20:33 40.67254 11.49281 36949 ft 452 kts 166°
2026-05-07 20:33 40.61431 11.52449 36950 ft 453 kts 166°
2026-05-07 20:34 40.55608 11.55612 36941 ft 453 kts 166°
2026-05-07 20:34 40.49788 11.58768 36943 ft 452 kts 166°
2026-05-07 20:35 40.43974 11.61914 36944 ft 452 kts 166°
2026-05-07 20:35 40.38155 11.65057 36942 ft 452 kts 166°
2026-05-07 20:36 40.32341 11.68191 36922 ft 452 kts 166°
2026-05-07 20:36 40.26541 11.71312 36936 ft 449 kts 166°
2026-05-07 20:37 40.20767 11.74414 36938 ft 449 kts 166°
2026-05-07 20:37 40.15026 11.77492 36936 ft 449 kts 166°
2026-05-07 20:38 40.09207 11.80606 36933 ft 449 kts 166°
2026-05-07 20:38 40.03463 11.83674 36934 ft 449 kts 166°
2026-05-07 20:39 39.97681 11.86757 36930 ft 449 kts 166°
2026-05-07 20:39 39.91899 11.89834 36927 ft 449 kts 166°
2026-05-07 20:40 39.86122 11.92903 36925 ft 449 kts 166°
2026-05-07 20:40 39.80343 11.95967 36921 ft 447 kts 166°
2026-05-07 20:41 39.74582 11.99016 36926 ft 447 kts 166°
2026-05-07 20:41 39.68816 12.02062 36925 ft 447 kts 166°
2026-05-07 20:42 39.63055 12.05100 36905 ft 447 kts 166°
2026-05-07 20:42 39.57284 12.08139 36918 ft 447 kts 167°
2026-05-07 20:43 39.51515 12.11170 36924 ft 447 kts 167°
2026-05-07 20:43 39.45744 12.14197 36916 ft 447 kts 167°
2026-05-07 20:44 39.39971 12.17220 36918 ft 447 kts 167°
2026-05-07 20:44 39.37089 12.18727 36732 ft 446 kts 167°
2026-05-07 20:44 39.34192 12.20240 35613 ft 455 kts 166°
2026-05-07 20:44 39.31308 12.21747 35129 ft 449 kts 166°
2026-05-07 20:45 39.28409 12.23258 34370 ft 450 kts 166°
2026-05-07 20:45 39.25496 12.24776 33296 ft 452 kts 166°
2026-05-07 20:45 39.22587 12.26291 32340 ft 451 kts 166°
2026-05-07 20:45 39.19684 12.27801 31656 ft 449 kts 166°
2026-05-07 20:46 39.16795 12.29302 30993 ft 446 kts 165°
2026-05-07 20:46 39.13920 12.30795 30215 ft 446 kts 165°
2026-05-07 20:46 39.11037 12.32290 29231 ft 448 kts 165°
2026-05-07 20:46 39.08135 12.33794 28294 ft 449 kts 164°
2026-05-07 20:47 39.05242 12.35292 27603 ft 446 kts 164°
2026-05-07 20:47 39.02376 12.36775 26959 ft 445 kts 164°
2026-05-07 20:47 38.99474 12.38275 26269 ft 453 kts 164°
2026-05-07 20:47 38.96543 12.39790 25610 ft 454 kts 163°
2026-05-07 20:48 38.93602 12.41307 24924 ft 457 kts 163°
2026-05-07 20:48 38.90645 12.42832 24244 ft 458 kts 163°
2026-05-07 20:48 38.87700 12.44378 23572 ft 456 kts 160°
2026-05-07 20:48 38.84969 12.46525 22705 ft 463 kts 150°
2026-05-07 20:49 38.82321 12.48844 22051 ft 458 kts 150°
2026-05-07 20:49 38.79701 12.51145 21420 ft 454 kts 150°
2026-05-07 20:49 38.77108 12.53430 20774 ft 450 kts 149°
2026-05-07 20:49 38.74577 12.55664 20141 ft 446 kts 149°
2026-05-07 20:50 38.72027 12.57912 19503 ft 443 kts 149°
2026-05-07 20:50 38.69499 12.60140 18873 ft 439 kts 149°
2026-05-07 20:50 38.66987 12.62352 18258 ft 436 kts 149°
2026-05-07 20:50 38.64494 12.64545 17569 ft 433 kts 149°
2026-05-07 20:51 38.62021 12.66718 16926 ft 430 kts 149°
2026-05-07 20:51 38.59560 12.68879 16318 ft 426 kts 149°
2026-05-07 20:51 38.57153 12.71062 15684 ft 425 kts 144°
2026-05-07 20:51 38.55014 12.73664 15145 ft 424 kts 135°
2026-05-07 20:52 38.53205 12.76625 14614 ft 423 kts 126°
2026-05-07 20:52 38.51764 12.79887 14071 ft 422 kts 117°
2026-05-07 20:52 38.50723 12.83385 13501 ft 421 kts 108°
2026-05-07 20:52 38.50103 12.87035 12892 ft 420 kts 99°
2026-05-07 20:53 38.49916 12.90738 12344 ft 417 kts 90°
2026-05-07 20:53 38.50160 12.94416 11803 ft 414 kts 81°
2026-05-07 20:53 38.50820 12.97973 11399 ft 408 kts 72°
2026-05-07 20:53 38.51694 13.01362 11203 ft 396 kts 73°
2026-05-07 20:54 38.52380 13.04663 11019 ft 384 kts 78°
2026-05-07 20:54 38.52883 13.07963 10841 ft 371 kts 82°
2026-05-07 20:54 38.53222 13.11157 10665 ft 355 kts 85°
2026-05-07 20:54 38.53421 13.14219 10494 ft 338 kts 88°
2026-05-07 20:55 38.53508 13.17155 10345 ft 323 kts 91°
2026-05-07 20:55 38.53492 13.19953 10200 ft 308 kts 94°
2026-05-07 20:55 38.53386 13.22638 10028 ft 299 kts 97°
2026-05-07 20:55 38.53196 13.25253 9849 ft 292 kts 99°
2026-05-07 20:56 38.52926 13.27812 9595 ft 289 kts 102°
2026-05-07 20:56 38.52575 13.30330 9288 ft 287 kts 104°
2026-05-07 20:56 38.52145 13.32803 8989 ft 284 kts 107°
2026-05-07 20:56 38.51643 13.35222 8703 ft 279 kts 109°
2026-05-07 20:57 38.51079 13.37571 8417 ft 274 kts 111°
2026-05-07 20:57 38.50457 13.39847 8153 ft 268 kts 113°
2026-05-07 20:57 38.49788 13.42028 7930 ft 260 kts 115°
2026-05-07 20:57 38.49077 13.44128 7648 ft 255 kts 117°
2026-05-07 20:58 38.48321 13.46157 7367 ft 250 kts 119°
2026-05-07 20:58 38.47527 13.48106 7116 ft 245 kts 122°
2026-05-07 20:58 38.46708 13.49973 6902 ft 237 kts 123°
2026-05-07 20:58 38.45770 13.51645 6709 ft 225 kts 134°
2026-05-07 20:59 38.44704 13.52980 6502 ft 213 kts 153°
2026-05-07 20:59 38.43353 13.53571 6270 ft 202 kts 179°
2026-05-07 20:59 38.41990 13.53356 6053 ft 197 kts 201°
2026-05-07 20:59 38.40778 13.52558 5862 ft 197 kts 212°
2026-05-07 21:00 38.39615 13.51608 5658 ft 199 kts 214°
2026-05-07 21:00 38.38470 13.50622 5453 ft 198 kts 215°
2026-05-07 21:00 38.37357 13.49626 5319 ft 193 kts 216°
2026-05-07 21:00 38.36257 13.48622 5202 ft 196 kts 217°
2026-05-07 21:01 38.35149 13.47597 5118 ft 197 kts 217°
2026-05-07 21:01 38.34053 13.46574 5014 ft 194 kts 218°
2026-05-07 21:01 38.32960 13.45546 4900 ft 196 kts 218°
2026-05-07 21:01 38.31861 13.44508 4803 ft 197 kts 218°
2026-05-07 21:02 38.30761 13.43466 4692 ft 197 kts 218°
2026-05-07 21:02 38.29666 13.42428 4576 ft 196 kts 218°
2026-05-07 21:02 38.28612 13.41342 4417 ft 195 kts 231°
2026-05-07 21:02 38.27987 13.39911 4234 ft 178 kts 245°
2026-05-07 21:03 38.27499 13.38541 3995 ft 164 kts 245°
2026-05-07 21:03 38.27042 13.37233 3842 ft 161 kts 246°
2026-05-07 21:03 38.26592 13.35930 3714 ft 160 kts 246°
2026-05-07 21:03 38.26146 13.34625 3581 ft 162 kts 246°
2026-05-07 21:04 38.25701 13.33309 3384 ft 161 kts 246°
2026-05-07 21:04 38.25265 13.32011 3200 ft 160 kts 245°
2026-05-07 21:04 38.24828 13.30712 3100 ft 159 kts 246°
2026-05-07 21:04 38.24395 13.29419 3011 ft 159 kts 245°
2026-05-07 21:05 38.23964 13.28129 2992 ft 158 kts 246°
2026-05-07 21:05 38.23532 13.26833 2856 ft 160 kts 246°
2026-05-07 21:05 38.23099 13.25528 2593 ft 160 kts 245°
2026-05-07 21:05 38.22666 13.24242 2320 ft 152 kts 245°
2026-05-07 21:06 38.22264 13.23051 2085 ft 143 kts 245°
2026-05-07 21:06 38.21872 13.21890 1695 ft 144 kts 245°
2026-05-07 21:06 38.21505 13.20721 1398 ft 143 kts 247°
2026-05-07 21:06 38.21072 13.19480 1214 ft 166 kts 244°
2026-05-07 21:07 38.20613 13.18109 1241 ft 169 kts 246°
2026-05-07 21:07 38.20140 13.16752 1070 ft 164 kts 245°
2026-05-07 21:07 38.19729 13.15482 756 ft 149 kts 247°
2026-05-07 21:07 38.19334 13.14325 476 ft 137 kts 244°
2026-05-07 21:08 38.18966 13.13214 318 ft 139 kts 245°
2026-05-07 21:08 38.18581 13.12083 138 ft 143 kts 246°
2026-05-07 21:08 38.18216 13.10992 68 ft 114 kts 247°
2026-05-07 21:08 38.18018 13.10400 65 ft 31 kts 248°
2026-05-07 21:09 38.18018 13.10204 61 ft 17 kts 276°
2026-05-07 21:09 38.18032 13.10046 64 ft 17 kts 276°
2026-05-07 21:09 38.18043 13.09955 62 ft 2 kts 281°
2026-05-07 21:09 38.18052 13.09933 61 ft 2 kts 326°
2026-05-07 21:10 38.18064 13.09937 68 ft 3 kts 24°
2026-05-07 21:10 38.18092 13.09999 62 ft 14 kts 67°
2026-05-07 21:10 38.18129 13.10110 66 ft 10 kts 66°
2026-05-07 21:10 38.18159 13.10198 67 ft 12 kts 68°
2026-05-07 21:11 38.18181 13.10266 62 ft 13 kts 67°
2026-05-07 21:11 38.18230 13.10364 60 ft 11 kts 22°
2026-05-07 21:11 38.18324 13.10456 61 ft 12 kts 59°
2026-05-07 21:12 38.18400 13.10506 59 ft 14 kts 20°
2026-05-07 21:12 38.18460 13.10577 62 ft 7 kts 56°
2026-05-07 21:12 38.18501 13.10573 63 ft 7 kts 338°
2026-05-07 21:12 38.18531 13.10558 67 ft 0 kts 337°